Atlanta, GA

5:04 AM EDT on April 29, 2017 (GMT -0400)
The Hartsfield Atlanta International

Weather History for KATL - February, 2013

Change the Weather History Date:

Tuesday, February 5, 2013

  Actual Average Record
Temperature  
Mean Temperature 51 °F 45 °F  
Max Temperature 62 °F 55 °F 76 °F (1957)
Min Temperature 39 °F 36 °F 5 °F (1917)
Degree Days  
Heating Degree Days 14 20  
Month to date heating degree days 106 100  
Since 1 July heating degree days 1451 1854  
Cooling Degree Days 0 0  
Month to date cooling degree days 0 0  
Year to date cooling degree days 5 0  
Moisture  
Dew Point 40 °F    
Average Humidity 70    
Maximum Humidity 83    
Minimum Humidity 57    
Precipitation  
Precipitation T in 0.16 in 2.05 in (1985)
Month to date precipitation 0.13 0.84  
Year to date precipitation 5.03 5.04  
Snow  
Snow 0.00 in 0.00 in 0.00 in (2002)
Month to date snowfall 0.0 0.1  
Since 1 July snowfall T 1.8  
Snow Depth -    
Sea Level Pressure  
Sea Level Pressure 30.01 in    
Wind  
Wind Speed 4 mph (West)    
Max Wind Speed 14 mph    
Max Gust Speed 16 mph    
Visibility 10 miles    
Events      
T = Trace of Precipitation, MM = Missing Value Source: NWS Daily Summary

Daily Weather History Graph

Daily Weather History Graph

Search for Another Location

Airport or City:

Trip Planner

Search our weather history database for the weather conditions in past years. The results will help you decide how hot, cold, wet, or windy it might be!

Date:

Astronomy

Feb. 05, 2013 Rise Set
Actual Time 7:30 AM EST 6:13 PM EST
Civil Twilight 7:04 AM EST 6:38 PM EST
Nautical Twilight 6:35 AM EST 7:08 PM EST
Astronomical Twilight 6:06 AM EST 7:37 PM EST
Moon 3:06 AM EST (2/5) 1:35 PM EST (2/5)
Length of Visible Light 11h 34m
Length of Day
10h 42m
Waning Crescent, 27% of the Moon is Illuminated
Feb 5
Waning Crescent
Feb 10
New
Feb 17
First Quarter
Feb 25
Full
Mar 4
Last Quarter

Hourly Weather History & Observations

Time (EST) Temp. Windchill Dew Point Humidity Pressure Visibility Wind Dir Wind Speed Gust Speed Precip Events Conditions
12:52 AM 42.1 °F - 30.9 °F 65% 30.00 in 10.0 mi Calm Calm - N/A   Scattered Clouds
1:52 AM 39.9 °F - 30.0 °F 68% 30.00 in 10.0 mi Calm Calm - N/A   Mostly Cloudy
2:52 AM 42.1 °F - 28.9 °F 60% 29.99 in 10.0 mi Calm Calm - N/A   Overcast
3:52 AM 41.0 °F - 28.9 °F 62% 29.98 in 10.0 mi Calm Calm - N/A   Mostly Cloudy
4:52 AM 41.0 °F 39.0 °F 30.0 °F 65% 29.97 in 10.0 mi South 3.5 mph - N/A   Mostly Cloudy
5:52 AM 42.1 °F - 30.9 °F 65% 29.99 in 10.0 mi Calm Calm - N/A   Mostly Cloudy
6:52 AM 44.1 °F 42.5 °F 32.0 °F 63% 30.00 in 10.0 mi SW 3.5 mph - N/A   Overcast
7:52 AM 45.0 °F 43.5 °F 33.1 °F 63% 30.02 in 8.0 mi WSW 3.5 mph - 0.00 in   Overcast
8:52 AM 46.0 °F - 35.1 °F 66% 30.03 in 9.0 mi Calm Calm - N/A   Overcast
9:52 AM 50.0 °F - 37.9 °F 63% 30.04 in 10.0 mi WSW 4.6 mph - N/A   Overcast
10:52 AM 52.0 °F - 39.9 °F 63% 30.05 in 10.0 mi West 8.1 mph - N/A   Mostly Cloudy
11:52 AM 55.9 °F - 42.1 °F 60% 30.05 in 10.0 mi West 10.4 mph - N/A   Mostly Cloudy
12:52 PM 57.9 °F - 44.1 °F 60% 30.03 in 10.0 mi NW 4.6 mph - N/A   Mostly Cloudy
1:38 PM 59.0 °F - 46.4 °F 63% 30.01 in 10.0 mi WNW 6.9 mph - N/A   Mostly Cloudy
1:52 PM 59.0 °F - 46.0 °F 62% 30.01 in 10.0 mi West 6.9 mph - N/A   Overcast
2:52 PM 60.1 °F - 46.9 °F 62% 30.00 in 10.0 mi WNW 9.2 mph - N/A   Mostly Cloudy
3:52 PM 60.1 °F - 46.9 °F 62% 29.99 in 10.0 mi West 8.1 mph - N/A   Mostly Cloudy
4:52 PM 60.1 °F - 46.9 °F 62% 29.99 in 10.0 mi WSW 5.8 mph - N/A   Mostly Cloudy
5:52 PM 60.1 °F - 46.9 °F 62% 29.98 in 10.0 mi WSW 5.8 mph - N/A   Mostly Cloudy
6:52 PM 57.9 °F - 48.0 °F 70% 29.99 in 10.0 mi Calm Calm - N/A   Mostly Cloudy
7:52 PM 57.0 °F - 48.0 °F 72% 30.00 in 10.0 mi Calm Calm - N/A   Mostly Cloudy
8:52 PM 54.0 °F - 48.0 °F 80% 30.02 in 10.0 mi NW 5.8 mph - N/A   Mostly Cloudy
9:52 PM 53.1 °F - 48.0 °F 83% 30.04 in 10.0 mi NW 4.6 mph - N/A   Scattered Clouds
10:52 PM 53.1 °F - 48.0 °F 83% 30.04 in 10.0 mi WNW 5.8 mph - N/A   Partly Cloudy
11:52 PM 52.0 °F - 48.0 °F 86% 30.04 in 10.0 mi NW 6.9 mph - N/A   Mostly Cloudy